Weather History for Dansville, NY

Change the Weather History Date:

Monday, February 18, 2013

  Actual Average Record
Temperature  
Mean Temperature 24 °F -  
Max Temperature 37 °F 33 °F 60 °F (1984)
Min Temperature 10 °F 16 °F -18 °F (1979)
Degree Days  
Heating Degree Days 42    
Moisture  
Dew Point 9 °F    
Average Humidity 55    
Maximum Humidity 79    
Minimum Humidity 31    
Precipitation  
Precipitation 0.00 in - - ()
Sea Level Pressure  
Sea Level Pressure 30.20 in    
Wind  
Wind Speed 4 mph (SE)    
Max Wind Speed 13 mph    
Max Gust Speed -    
Visibility 10 miles    
Events      
Averages and records for this station are not official NWS values.
T = Trace of Precipitation, MM = Missing Value Source: NWS Daily Summary

Daily Weather History Graph

Daily Weather History Graph

Search for Another Location

Airport:

Trip Planner

Search our weather history database for the weather conditions in past years. The results will help you decide how hot, cold, wet, or windy it might be!

Date:

Astronomy

Feb. 18, 2013 Rise Set
Actual Time 7:03 AM EST 5:47 PM EST
Civil Twilight 6:34 AM EST 6:15 PM EST
Nautical Twilight 6:01 AM EST 6:48 PM EST
Astronomical Twilight 5:28 AM EST 7:21 PM EST
Moon 11:27 AM EST (2/18) 1:44 AM EST (2/18)
Length of Visible Light 11h 41m
Length of Day
10h 44m
First Quarter, 58% of the Moon is Illuminated
Feb 18
First Quarter
Feb 25
Full
Mar 4
Last Quarter
Mar 11
New
Mar 19
First Quarter

Hourly Weather History & Observations

Time (EST) Temp. Windchill Dew Point Humidity Pressure Visibility Wind Dir Wind Speed Gust Speed Precip Events Conditions
12:54 AM 10.9 °F 4.7 °F 3.0 °F 70% 30.24 in 10.0 mi NW 3.5 mph - N/A   Clear
1:54 AM 10.0 °F 1.8 °F 1.9 °F 70% 30.25 in 10.0 mi NW 4.6 mph - N/A   Clear
2:54 AM 10.0 °F - 3.0 °F 73% 30.27 in 10.0 mi Calm Calm - N/A   Scattered Clouds
3:24 AM 12.2 °F 2.9 °F 3.2 °F 67% 30.21 in 10.0 mi WNW 5.8 mph - N/A   Overcast
3:54 AM 12.0 °F - 3.9 °F 70% 30.29 in 10.0 mi Calm Calm - N/A   Overcast
4:54 AM 12.9 °F - 5.0 °F 71% 30.31 in 10.0 mi Calm Calm - N/A   Overcast
5:54 AM 14.0 °F - 6.1 °F 71% 30.32 in 10.0 mi Calm Calm - N/A   Overcast
6:54 AM 14.0 °F - 6.1 °F 71% 30.32 in 10.0 mi Calm Calm - N/A   Overcast
7:54 AM 12.9 °F - 6.1 °F 74% 30.34 in 10.0 mi Calm Calm - N/A   Clear
8:14 AM 12.2 °F 6.1 °F 6.8 °F 79% 30.27 in 10.0 mi SE 3.5 mph - N/A   Mostly Cloudy
8:54 AM 15.1 °F 7.7 °F 7.0 °F 70% 30.33 in 10.0 mi ESE 4.6 mph - N/A   Scattered Clouds
9:54 AM 18.0 °F - 9.0 °F 68% 30.31 in 10.0 mi Calm Calm - N/A   Clear
10:54 AM 21.0 °F - 9.0 °F 60% 30.31 in 10.0 mi Calm Calm - N/A   Clear
11:54 AM 25.0 °F 19.3 °F 10.9 °F 55% 30.27 in 10.0 mi Variable 4.6 mph - N/A   Clear
12:54 PM 28.0 °F - 10.9 °F 49% 30.23 in 10.0 mi Calm Calm - N/A   Clear
1:54 PM 32.0 °F 26.4 °F 10.9 °F 42% 30.19 in 10.0 mi East 5.8 mph - N/A   Clear
2:54 PM 35.1 °F 27.9 °F 10.0 °F 35% 30.16 in 10.0 mi SSE 9.2 mph - N/A   Clear
3:54 PM 37.0 °F 30.4 °F 9.0 °F 31% 30.14 in 10.0 mi SSE 9.2 mph - N/A   Partly Cloudy
4:54 PM 37.0 °F 31.0 °F 9.0 °F 31% 30.12 in 10.0 mi SE 8.1 mph - N/A   Clear
5:54 PM 34.0 °F 28.8 °F 10.9 °F 38% 30.10 in 10.0 mi SE 5.8 mph - N/A   Clear
6:54 PM 34.0 °F 27.2 °F 12.0 °F 40% 30.09 in 10.0 mi SSE 8.1 mph - N/A   Clear
7:54 PM 34.0 °F 26.6 °F 10.9 °F 38% 30.06 in 10.0 mi SE 9.2 mph - N/A   Clear
8:54 PM 35.1 °F 26.4 °F 12.0 °F 39% 30.02 in 10.0 mi SE 12.7 mph - N/A   Clear
9:54 PM 35.1 °F 26.9 °F 14.0 °F 42% 30.01 in 10.0 mi SE 11.5 mph - N/A   Clear
10:54 PM 35.1 °F 28.6 °F 15.1 °F 44% 30.00 in 10.0 mi ESE 8.1 mph - N/A   Clear
11:54 PM 37.0 °F 31.6 °F 17.1 °F 44% 29.98 in 10.0 mi SE 6.9 mph - N/A   Overcast